User: anonymous   Login
Location: ?
(35.4214°N, 139.3011°E)
Time: 11:18:29
(UTC+00:00)
Language:

MetOp-A - Orbit

View from above orbital plane
View from above orbital plane
View from above satellite
View from above satellite

Ground track
Ground track

The orbit data is extracted from the following two-line orbital elements,

1 29499U 06044A   20270.85418983 -.00000013 +00000-0 +13122-4 0  9992
2 29499 098.5124 314.1165 0001035 065.8683 295.7281 14.21490129723111
Epoch (UTC): 26 September 2020 20:30:02
Eccentricity: 0.0001035
inclination: 98.5124°
perigee height: 819 km
apogee height: 821 km
right ascension of ascending node: 314.1165°
argument of perigee: 65.8683°
revolutions per day: 14.21490129
mean anomaly at epoch: 295.7281°
orbit number at epoch: 72311

The dashed part of the orbit path shows where the satellite is in the earth's shadow,  

DLR